AFR19LP LGAV-LFPG

Flight info

Callsign AFR19LP
Flight time N/A
Altitude 28000
Route KOR UL53 IXONI/N0453F380 UL53 OLGAT DCT ABADI DCT CRAYE DCT GISAM DCT RILIM DCT BAXON DCT SRN DCT CERVI DCT MOLUS DCT UNKIR DCT GIVRI DCT TINIL
Aircraft A319/M-SDE2E3FGIJ1RWY/HB1

Departure

Time 2026-05-07 15:36
Airport Athens Eleftherios Venizelos International Airport (LGAV)

Arrival

Time N/A
Airport Charles de Gaulle International Airport (LFPG)
Time Latitude Longitude Altitude Speed Heading
2026-05-07 14:59 37.93798 23.95012 302 ft 0 kts 307°
2026-05-07 15:26 37.93795 23.95017 301 ft 4 kts 307°
2026-05-07 15:26 37.93779 23.95044 302 ft 4 kts 307°
2026-05-07 15:26 37.93766 23.95065 300 ft 4 kts 314°
2026-05-07 15:26 37.93754 23.95080 302 ft 4 kts 335°
2026-05-07 15:27 37.93731 23.95084 300 ft 4 kts 29°
2026-05-07 15:27 37.93725 23.95080 300 ft 0 kts 37°
2026-05-07 15:30 37.93733 23.95087 300 ft 3 kts 37°
2026-05-07 15:30 37.93761 23.95114 300 ft 7 kts 37°
2026-05-07 15:30 37.93810 23.95161 301 ft 10 kts 37°
2026-05-07 15:31 37.93862 23.95236 300 ft 12 kts 66°
2026-05-07 15:31 37.93891 23.95338 301 ft 13 kts 71°
2026-05-07 15:31 37.93947 23.95418 302 ft 13 kts 36°
2026-05-07 15:31 37.94017 23.95484 299 ft 12 kts 37°
2026-05-07 15:32 37.94085 23.95547 301 ft 12 kts 36°
2026-05-07 15:32 37.94150 23.95611 299 ft 12 kts 38°
2026-05-07 15:32 37.94214 23.95673 299 ft 12 kts 37°
2026-05-07 15:32 37.94278 23.95734 301 ft 11 kts 36°
2026-05-07 15:33 37.94328 23.95780 299 ft 4 kts 37°
2026-05-07 15:33 37.94348 23.95799 299 ft 4 kts 37°
2026-05-07 15:33 37.94371 23.95835 299 ft 6 kts 76°
2026-05-07 15:33 37.94351 23.95900 300 ft 9 kts 111°
2026-05-07 15:34 37.94374 23.95969 298 ft 10 kts 37°
2026-05-07 15:34 37.94412 23.96004 299 ft 6 kts 37°
2026-05-07 15:34 37.94450 23.96040 300 ft 7 kts 37°
2026-05-07 15:34 37.94498 23.96086 299 ft 11 kts 37°
2026-05-07 15:35 37.94582 23.96166 300 ft 18 kts 37°
2026-05-07 15:35 37.94652 23.96284 299 ft 18 kts 98°
2026-05-07 15:35 37.94531 23.96330 295 ft 23 kts 154°
2026-05-07 15:35 37.94422 23.96282 291 ft 18 kts 215°
2026-05-07 15:36 37.94199 23.96081 289 ft 72 kts 217°
2026-05-07 15:36 37.93622 23.95532 281 ft 133 kts 217°
2026-05-07 15:36 37.92769 23.94719 480 ft 161 kts 217°
2026-05-07 15:36 37.91874 23.93885 1119 ft 161 kts 216°
2026-05-07 15:37 37.90962 23.93046 1729 ft 163 kts 216°
2026-05-07 15:37 37.90073 23.92137 2360 ft 166 kts 221°
2026-05-07 15:37 37.89212 23.91120 2858 ft 177 kts 219°
2026-05-07 15:37 37.88126 23.90236 3216 ft 195 kts 206°
2026-05-07 15:38 37.86793 23.89508 3500 ft 223 kts 201°
2026-05-07 15:38 37.85260 23.88784 3953 ft 245 kts 200°
2026-05-07 15:38 37.83692 23.87971 4960 ft 241 kts 206°
2026-05-07 15:38 37.82207 23.86879 5501 ft 260 kts 223°
2026-05-07 15:39 37.81236 23.84914 6081 ft 272 kts 254°
2026-05-07 15:39 37.81172 23.82537 6915 ft 274 kts 283°
2026-05-07 15:39 37.81780 23.80248 7811 ft 275 kts 288°
2026-05-07 15:39 37.82341 23.77927 8666 ft 277 kts 285°
2026-05-07 15:40 37.82837 23.75572 9614 ft 277 kts 284°
2026-05-07 15:40 37.83323 23.73189 10353 ft 283 kts 284°
2026-05-07 15:40 37.83860 23.70694 10672 ft 305 kts 285°
2026-05-07 15:40 37.84459 23.68030 11018 ft 323 kts 285°
2026-05-07 15:41 37.85093 23.65277 11684 ft 328 kts 286°
2026-05-07 15:41 37.85743 23.62506 12441 ft 330 kts 286°
2026-05-07 15:41 37.86388 23.59722 13320 ft 328 kts 285°
2026-05-07 15:41 37.87006 23.56946 14137 ft 329 kts 284°
2026-05-07 15:42 37.87621 23.54141 14740 ft 333 kts 285°
2026-05-07 15:42 37.88252 23.51308 15392 ft 335 kts 285°
2026-05-07 15:42 37.88889 23.48460 16070 ft 337 kts 285°
2026-05-07 15:42 37.89525 23.45602 16758 ft 338 kts 285°
2026-05-07 15:43 37.90159 23.42724 17418 ft 340 kts 284°
2026-05-07 15:43 37.90793 23.39829 18069 ft 343 kts 284°
2026-05-07 15:43 37.91434 23.36910 18666 ft 346 kts 284°
2026-05-07 15:43 37.92083 23.33959 19217 ft 348 kts 285°
2026-05-07 15:44 37.92737 23.30993 19756 ft 351 kts 285°
2026-05-07 15:44 37.93401 23.28005 20308 ft 354 kts 285°
2026-05-07 15:44 37.94071 23.24994 20847 ft 356 kts 285°
2026-05-07 15:44 37.94735 23.22002 21372 ft 359 kts 285°
2026-05-07 15:45 37.95423 23.18903 21911 ft 362 kts 285°
2026-05-07 15:45 37.96103 23.15827 22431 ft 365 kts 285°
2026-05-07 15:45 37.96788 23.12717 22928 ft 368 kts 285°
2026-05-07 15:45 37.97477 23.09579 23451 ft 371 kts 285°
2026-05-07 15:46 37.98871 23.03229 24295 ft 376 kts 285°
2026-05-07 15:46 37.99569 23.00030 24732 ft 378 kts 285°
2026-05-07 15:46 38.00272 22.96809 25171 ft 379 kts 285°
2026-05-07 15:47 38.00975 22.93581 25610 ft 380 kts 285°
2026-05-07 15:47 38.01679 22.90346 26034 ft 381 kts 285°
2026-05-07 15:47 38.02386 22.87101 26463 ft 383 kts 285°
2026-05-07 15:47 38.03095 22.83849 26886 ft 384 kts 285°
2026-05-07 15:48 38.03805 22.80583 27290 ft 385 kts 285°
2026-05-07 15:48 38.04517 22.77298 27688 ft 386 kts 285°
2026-05-07 15:48 38.05217 22.74054 28033 ft 386 kts 285°
2026-05-07 15:49 38.07215 22.67943 28110 ft 372 kts 301°
2026-05-07 15:49 38.08683 22.65174 28158 ft 383 kts 302°
2026-05-07 15:49 38.10201 22.62348 28314 ft 391 kts 302°
2026-05-07 15:49 38.11758 22.59476 28440 ft 398 kts 303°
2026-05-07 15:50 38.13347 22.56566 28573 ft 405 kts 303°
2026-05-07 15:50 38.14971 22.53609 28730 ft 410 kts 303°
2026-05-07 15:50 38.16615 22.50625 28928 ft 414 kts 303°
2026-05-07 15:50 38.18263 22.47630 29270 ft 414 kts 303°
2026-05-07 15:51 38.19912 22.44616 29689 ft 413 kts 302°
2026-05-07 15:51 38.21523 22.41645 30281 ft 407 kts 302°
2026-05-07 15:51 38.23114 22.38709 30820 ft 400 kts 302°
2026-05-07 15:51 38.24686 22.35810 31362 ft 394 kts 302°
2026-05-07 15:52 38.26230 22.32961 31914 ft 388 kts 302°
2026-05-07 15:52 38.27749 22.30157 32467 ft 382 kts 302°
2026-05-07 15:52 38.29247 22.27392 33019 ft 376 kts 302°
2026-05-07 15:52 38.30717 22.24673 33600 ft 370 kts 302°
2026-05-07 15:53 38.32161 22.21998 34191 ft 363 kts 302°
2026-05-07 15:53 38.33574 22.19382 34700 ft 356 kts 302°
2026-05-07 15:53 38.34972 22.16798 35127 ft 352 kts 302°
2026-05-07 15:53 38.36359 22.14235 35481 ft 350 kts 302°
2026-05-07 15:54 38.37734 22.11686 35786 ft 349 kts 302°
2026-05-07 15:54 38.39102 22.09142 36006 ft 349 kts 302°
2026-05-07 15:54 38.40478 22.06586 36108 ft 349 kts 302°
2026-05-07 15:55 38.43217 22.01496 36103 ft 348 kts 302°
2026-05-07 15:55 38.45944 21.96404 36109 ft 348 kts 302°
2026-05-07 15:56 38.48669 21.91309 36096 ft 347 kts 302°
2026-05-07 15:56 38.51393 21.86222 36096 ft 346 kts 303°
2026-05-07 15:57 38.54090 21.81173 36099 ft 347 kts 302°
2026-05-07 15:57 38.56804 21.76067 36095 ft 347 kts 302°
2026-05-07 15:58 38.59519 21.70966 36104 ft 347 kts 302°
2026-05-07 15:58 38.62235 21.65854 36105 ft 348 kts 301°
2026-05-07 15:59 38.64953 21.60742 36104 ft 348 kts 301°
2026-05-07 15:59 38.67664 21.55627 36110 ft 346 kts 301°
2026-05-07 16:00 38.70372 21.50506 36111 ft 347 kts 301°
2026-05-07 16:00 38.73076 21.45392 36109 ft 347 kts 301°
2026-05-07 16:00 38.74261 21.42714 36110 ft 345 kts 288°
2026-05-07 16:01 38.74595 21.39661 36099 ft 349 kts 277°
2026-05-07 16:01 38.74825 21.33444 36092 ft 350 kts 277°
2026-05-07 16:02 38.75141 21.27234 36090 ft 349 kts 278°
2026-05-07 16:02 38.76042 21.21192 36094 ft 345 kts 293°
2026-05-07 16:03 38.78521 21.15924 36085 ft 347 kts 301°
2026-05-07 16:03 38.81216 21.10790 36090 ft 347 kts 301°
2026-05-07 16:04 38.83901 21.05640 36092 ft 348 kts 301°
2026-05-07 16:04 38.86593 21.00463 36093 ft 348 kts 301°
2026-05-07 16:05 38.89278 20.95294 36094 ft 349 kts 301°
2026-05-07 16:05 38.92315 20.90432 36102 ft 358 kts 316°
2026-05-07 16:06 38.96351 20.86628 36106 ft 360 kts 316°
2026-05-07 16:06 39.00392 20.82825 36120 ft 360 kts 316°
2026-05-07 16:07 39.04431 20.79025 36124 ft 359 kts 316°
2026-05-07 16:07 39.08460 20.75235 36118 ft 359 kts 316°
2026-05-07 16:08 39.11947 20.70851 36101 ft 345 kts 298°
2026-05-07 16:08 39.14563 20.65659 36089 ft 346 kts 300°
2026-05-07 16:09 39.17245 20.60511 36073 ft 347 kts 300°
2026-05-07 16:09 39.19926 20.55332 36076 ft 347 kts 300°
2026-05-07 16:10 39.22589 20.50144 36075 ft 347 kts 300°
2026-05-07 16:10 39.25236 20.44957 36072 ft 346 kts 300°
2026-05-07 16:11 39.27889 20.39754 36064 ft 347 kts 300°
2026-05-07 16:11 39.30551 20.34545 36063 ft 348 kts 300°
2026-05-07 16:12 39.33212 20.29325 36091 ft 348 kts 299°
2026-05-07 16:12 39.35872 20.24107 36091 ft 347 kts 299°
2026-05-07 16:13 39.38068 20.19773 36090 ft 347 kts 299°
2026-05-07 16:13 39.40704 20.14560 36090 ft 346 kts 299°
2026-05-07 16:14 39.43341 20.09346 36081 ft 348 kts 299°